Location: Saint-Palais-sur-Mer
(45.6429°N, 1.0859°W)
Time: 08:52:07
(UTC+02:00)

TIGRISAT - Pass Details

Date: 27 April 2024
Orbit: 594 x 672 km, 97.7° (Epoch: 21 May)

Event Time Altitude Azimuth Distance (km) Brightness Sun altitude
Rises 04:59:42 0° 133° (SE) 2,910 ? -18.2°
Reaches altitude 10° 05:02:13 10° 120° (ESE) 1,993 ? -17.9°
Maximum altitude 05:05:42 24° 66° (ENE) 1,278 ? -17.4°
Drops below altitude 10° 05:09:09 10° 13° (NNE) 1,969 ? -17.0°
Sets 05:11:37 0° 359° (N) 2,868 ? -16.7°
